Location: Chevoux
(46.3801°N, 4.9476°E)
Time: 22:25:49
(UTC+00:00)

CSL-04 DEB - Pass Details

Date: 28 January 2021
Orbit: 544 x 628 km, 98.8° (Epoch: 04 March)

Event Time Altitude Azimuth Distance (km) Brightness Sun altitude
Rises 17:29:36 0° 16° (NNE) 2,826 7.6 -9.0°
Reaches altitude 10° 17:31:49 10° 20° (NNE) 1,907 6.7 -9.3°
Maximum altitude 17:35:55 66° 103° (ESE) 624 4.4 -10.0°
Drops below altitude 10° 17:39:53 10° 186° (S) 1,844 7.3 -10.7°
Sets 17:41:59 0° 189° (S) 2,724 8.2 -11.0°
